Retour au catalogue

BEIDOU 3M19

ActifNavigationMEO
NORAD 44864·PAYLOAD·🇨🇳 China

Lancé Dec 16, 2019 depuis Xichang Satellite Launch Center

Loading…

Prochains Passages (prochaines 24 heures)

TLE

FraisSource: Space-Track

Époque: Sep 13, 2026, 12:52 UTC

1 44864U 19090A   26256.53663356 -.00000048  00000-0  00000-0 0  9996
2 44864  56.6405  59.8744 0015761 292.2937  75.3247  1.86231475 45885

Suivez BEIDOU 3M19 en temps réel avec AllMySat

Download on the App Store